Flag for Canada

Past Weather in 43°38'16.6"N, 79°31'54.5"W, Canada — Yesterday and Last 2 Weeks

Now
70 °F

Passing clouds.


Feels Like: 70 °F
Forecast: 77 / 60 °F
Wind: 2 mph from North

Location: Toronto Pearson International Airport

Current Time: May 26, 2020 at 12:41:54 am

Latest Report: May 26, 2020 at 12:00 am


Visibility: 15 mi

Pressure: 30.05 "Hg

Humidity: 73%

Dew Point: 61 °F

Location of 43°38'16.6"N, 79°31'54.5"WLocation

Past Weather in 43°38'16.6"N, 79°31'54.5"W — Graph

°F

43°38'16.6"N, 79°31'54.5"W Temperature Yesterday

Maximum temperature yesterday: 86 °F (at 12:00 pm)
Minimum temperature yesterday: 66 °F (at 12:00 am)
Average temperature yesterday: 75 °F

High & Low Weather Summary for the Past Weeks

 TemperatureHumidityPressure
High86 °F (May 25, 12:00 pm)100% (May 11, 8:21 am)30.37 "Hg (May 11, 8:21 am)
Low27 °F (May 12, 4:00 am)19% (May 21, 4:00 pm)29.77 "Hg (May 15, 1:00 pm)
Average56 °F64%30.10 "Hg
* Reported May 10 11:00 pm — May 25 11:00 pm, 43°38'16.6"N, 79°31'54.5"W. Weather by CustomWeather, © 2020

Note: Actual official high and low records may vary slightly from our data, if they occured in-between our weather recording intervals... More about our weather records

43°38'16.6"N, 79°31'54.5"W Weather History for the Previous 24 Hours

Scroll right to see more
 ConditionsComfort  
Time TempWeatherWind HumidityBarometerVisibility
11:00 pm
Mon, May 25
70 °FPassing clouds.6 mph73%30.04 "Hg15 mi
10:00 pm75 °FPassing clouds.No wind61%30.03 "Hg15 mi
9:00 pm75 °FPassing clouds.6 mph65%30.02 "Hg15 mi
8:00 pm81 °FScattered clouds.6 mph58%30.00 "Hg15 mi
7:00 pm82 °FBroken clouds.9 mph51%30.00 "Hg15 mi
6:00 pm79 °FBroken clouds.9 mph61%30.01 "Hg15 mi
5:00 pm82 °FPartly sunny.10 mph58%30.00 "Hg15 mi
4:00 pm84 °FPartly sunny.10 mph55%30.01 "Hg15 mi
3:00 pm84 °FPartly sunny.9 mph58%30.01 "Hg15 mi
2:00 pm86 °FPartly sunny.7 mph52%30.02 "Hg15 mi
1:00 pm84 °FBroken clouds.10 mph55%30.03 "Hg15 mi
12:00 pm86 °FPartly sunny.6 mph49%30.03 "Hg15 mi
11:00 am82 °FPartly sunny.6 mph58%30.03 "Hg15 mi
10:00 am79 °FPartly sunny.6 mph65%30.03 "Hg15 mi
9:00 am75 °FPartly sunny.7 mph69%30.01 "Hg15 mi
8:00 am72 °FScattered clouds.7 mph83%30.01 "Hg15 mi
7:00 am70 °FPassing clouds.8 mph83%30.00 "Hg15 mi
6:00 am68 °FScattered clouds.13 mph88%29.99 "Hg15 mi
5:00 am70 °FPassing clouds.10 mph83%29.97 "Hg15 mi
4:00 am68 °FPassing clouds.6 mph88%29.95 "Hg15 mi
3:00 am70 °FPassing clouds.8 mph78%29.94 "Hg15 mi
2:33 am70 °FPassing clouds.12 mph83%29.94 "Hg15 mi
2:00 am66 °FPartly cloudy.3 mph78%29.93 "Hg15 mi
1:40 am70 °FPassing clouds.7 mph78%29.93 "Hg15 mi
1:11 am68 °FLight rain. Partly cloudy.5 mph78%29.92 "Hg15 mi
1:00 am70 °FPartly cloudy.6 mph73%29.93 "Hg15 mi
12:00 am66 °FPartly cloudy.5 mph73%29.93 "Hg15 mi
Weather by CustomWeather, © 2020

See weather overview

Advertising